Location: *
(45.4590°N, 16.3650°E)
Time: 17:19:10
(UTC+00:00)

Daily predictions for brighter satellites

Satellite Brightness Start Highest point End
(mag) Time Altitude Azimuth Time Altitude Azimuth Time Altitude Azimuth
ATLAS CENTAUR R/B 3.3 15:56:51 10° SSW 16:01:09 70° SE 16:12:46 10° NE
COSMOS 2428 3.4 16:04:36 10° NNW 16:09:48 34° NE 16:14:58 10° ESE
Cosmos 2360 Rocket 2.2 16:05:08 10° NNW 16:10:50 87° ENE 16:16:28 10° SSE
CORIOLIS 4.2 16:05:48 10° SSE 16:11:06 63° ENE 16:16:25 10° N
H-2A R/B 2.7 16:07:47 10° SSE 16:11:34 73° ENE 16:15:25 10° N
Cosmos 1689 Rocket 3.8 16:10:39 10° N 16:13:21 33° WNW 16:16:03 10° SW
Cosmos 1606 Rocket 3.8 16:10:02 10° NNW 16:14:23 74° W 16:18:41 10° S
Cosmos 1174 3.2 16:12:48 10° NNW 16:15:53 66° NE 16:19:20 10° SE
Starlink Q 4.5 16:14:08 10° S 16:16:14 19° SE 16:18:21 10° E
Starlink P 4.5 16:15:07 10° S 16:17:15 19° SE 16:19:24 10° E
Cosmos 990 Rocket 4.4 16:12:04 10° SSW 16:17:17 67° WNW 16:22:31 10° NNE
Cosmos 1726 Rocket 3.6 16:13:36 10° N 16:17:59 84° W 16:22:19 10° S
Starlink U 4.4 16:16:05 10° S 16:18:15 20° SE 16:20:25 10° E
Cosmos 1626 3.5 16:15:59 10° SE 16:18:42 20° E 16:21:26 10° NE
Starlink B 4.4 16:17:21 10° S 16:19:34 20° SE 16:21:47 10° E
Cosmos 2219 Rocket 2.6 16:15:00 10° NNW 16:20:21 40° NE 16:25:39 10° SE
Starlink D 4.4 16:18:27 10° S 16:20:43 21° SE 16:22:59 10° E
Starlink S 4.3 16:19:30 10° S 16:21:48 22° SE 16:24:02 10° E
Starlink C 4.3 16:20:31 10° S 16:22:50 22° SE 16:25:03 11° E
Starlink E 4.3 16:21:36 10° SSW 16:23:56 23° SE 16:26:07 11° E
Starlink J 4.2 16:22:39 10° SSW 16:25:02 23° SE 16:27:10 11° E
Cosmos 1626 Rocket 4.3 16:21:34 10° SSE 16:25:22 30° E 16:29:11 10° NNE
PSLV R/B 4.1 16:21:21 10° N 16:25:25 77° WNW 16:29:29 10° SSW
Starlink V 4.2 16:23:43 10° SSW 16:26:06 24° SE 16:28:13 12° E
NOAA 12 4.1 16:21:24 10° SSE 16:26:34 68° ENE 16:31:48 10° N
Starlink H 4.1 16:24:48 10° SSW 16:27:13 24° SE 16:29:17 12° E
Starlink F 4.1 16:25:53 10° SSW 16:28:20 25° SE 16:30:22 13° E
Starlink G 4.1 16:26:58 10° SSW 16:29:26 25° SE 16:31:26 13° E
YAOGAN 6 3.1 16:26:00 10° SE 16:29:28 39° ENE 16:32:56 10° N
Starlink L 4.0 16:28:03 10° SSW 16:30:32 26° SE 16:32:30 13° E
IRS-1C Rocket 4.3 16:25:46 10° S 16:31:00 77° WSW 16:36:18 10° NNW
Starlink A 4.0 16:29:09 10° SSW 16:31:39 27° SE 16:33:36 14° E
Cosmos 1461 3.5 16:28:25 10° NNW 16:32:29 39° NE 16:36:40 10° ESE
Starlink R 4.0 16:30:15 10° SSW 16:32:47 27° SE 16:34:41 14° E
Cosmos 2084 Rocket 3.6 16:29:18 10° NW 16:33:46 84° SW 16:38:13 10° SE
Starlink AR 3.7 16:31:41 10° SSW 16:33:51 26° SE 16:35:21 15° E
Starlink K 3.9 16:31:19 10° SSW 16:33:52 28° SE 16:35:44 15° E
Starlink M 3.9 16:32:22 10° SSW 16:34:55 29° SE 16:36:46 15° E
Ariane Rocket 4.5 16:33:31 10° E 16:36:23 15° ENE 16:39:16 10° NNE
CZ-4B R/B 4.5 16:37:25 10° NW 16:37:58 10° WNW 16:38:29 10° WNW
USA 267 4.0 16:33:24 10° NE 16:39:27 42° NNW 16:45:30 10° W
Cosmos 1242 Rocket 3.0 16:36:38 10° SSE 16:39:51 37° E 16:43:09 10° NNE
Cosmos 2184 Rocket 3.9 16:35:06 10° S 16:41:15 74° E 16:47:25 10° NNE
Cosmos 1607 4.2 16:35:58 10° S 16:41:49 50° ESE 16:47:26 11° NE
Cosmos 2154 Rocket 4.1 16:42:39 10° SSE 16:48:44 54° E 16:54:48 10° NNE
SJ 16-02 3.3 16:48:12 10° WSW 16:51:58 27° WNW 16:55:46 10° N
Cosmos 2150 Rocket 3.9 16:47:09 10° SSW 16:52:18 74° ESE 16:57:27 10° NNE
Alouette 2 Rocket 4.1 16:50:04 10° NNW 16:54:31 86° ENE 17:01:14 10° SSE
CZ-2D R/B 4.0 16:52:30 10° SE 16:55:48 28° ENE 16:59:08 10° N
SKYMED 2 3.6 16:51:48 10° NNE 16:56:06 61° E 17:00:23 10° S
CSL-04 Debris 4.4 16:51:10 10° SE 16:56:18 47° ENE 17:01:27 10° N
Meteor 2-5 Rocket 4.1 16:52:29 10° SSW 16:57:58 67° WNW 17:03:32 10° N
Cosmos 1340 Rocket 3.1 16:54:33 10° N 16:58:18 41° ENE 17:02:03 10° SSE
Cosmos 2333 Rocket 2.1 16:53:23 10° NNW 16:59:09 79° ENE 17:04:50 10° SSE
Meteor 1-24 Rocket 3.6 16:54:18 10° S 16:59:35 87° W 17:04:59 10° N
CZ-4C R/B 3.0 16:55:25 10° NW 17:02:26 61° NE 17:10:30 10° SE
ATLAS 5 CENTAUR R/B 4.3 17:00:55 10° NNW 17:04:01 19° NE 17:05:45 17° NE
Cosmos 2237 Rocket 2.7 17:01:02 10° NNW 17:06:12 36° NE 17:10:02 16° ESE
Cosmos 1939 Rocket 3.2 17:02:53 10° SE 17:06:28 37° ENE 17:10:06 10° N
Cosmos 1610 Rocket 4.4 17:01:12 10° S 17:07:19 79° E 17:13:29 10° N
Cosmos 1812 Rocket 3.5 17:07:05 10° N 17:11:32 68° E 17:15:59 10° SSE
SL-14 R/B 3.3 17:07:37 10° S 17:11:39 85° W 17:15:40 10° N
CZ-4 R/B 4.4 17:08:10 10° SSE 17:12:17 90° SW 17:16:27 10° NNW
FengYun 1-2 T 4.4 17:08:13 10° S 17:13:49 77° WSW 17:19:30 10° NNW
Cosmos 1125 Rocket 3.4 17:12:18 10° S 17:17:27 69° ESE 17:21:37 16° NNE
Cosmos 1300 2.8 17:14:45 10° NNW 17:18:35 77° W 17:22:22 10° S
YAOGAN 1 2.4 17:14:20 10° SSE 17:18:37 74° ENE 17:22:58 10° N
H-2A ROCKET BODY 4.3 17:13:21 10° WSW 17:18:50 16° SSW 17:21:45 10° SSE
Meteor 2-10 Rocket 4.2 17:16:41 10° N 17:21:34 32° ENE 17:22:27 30° E
Cosmos 1295 Rocket 4.4 17:17:13 10° S 17:23:31 75° E 17:29:51 10° NNE
SL-16 R/B 3.4 17:19:56 10° N 17:23:51 22° NE 17:23:51 22° NE
Cosmos 1271 Rocket 3.8 17:20:50 10° SSW 17:24:24 43° WNW 17:28:01 10° N
USA 116 3.1 17:25:22 53° NE 17:25:56 66° ESE 17:29:03 10° S
CZ-4 R/B 1.7 17:23:35 10° S 17:27:32 68° WSW 17:31:37 10° NNW
Cosmos 2219 3.5 17:22:17 10° S 17:27:35 44° ESE 17:29:32 32° ENE
CSL-04 Rocket 3.6 17:23:22 10° SSE 17:28:49 85° ENE 17:34:23 10° NNW
Cosmos 1269 Rocket 4.0 17:23:57 10° NNW 17:29:10 56° ENE 17:33:57 12° SE
Starlink AQ 2.7 17:27:04 10° WSW 17:29:43 71° WNW 17:29:43 71° WNW
Meteor 2-1 Rocket 4.0 17:24:24 10° N 17:29:57 81° E 17:35:28 10° SSE
Cosmos 962 Rocket 4.3 17:23:58 10° S 17:30:02 70° E 17:36:09 10° NNE
Starlink AS 2.9 17:29:42 10° WSW 17:32:14 63° W 17:32:14 63° W
Starlink BA 3.0 17:29:44 10° WSW 17:32:15 63° W 17:32:15 63° W
Starlink AU 3.0 17:30:04 10° WSW 17:32:35 63° W 17:32:35 63° W
Starlink AT 3.0 17:30:15 10° WSW 17:32:45 62° W 17:32:45 62° W
Starlink BB 3.0 17:30:19 10° WSW 17:32:47 61° W 17:32:47 61° W
Starlink BC 3.0 17:30:30 10° WSW 17:32:58 61° W 17:32:58 61° W
Starlink BK 3.0 17:30:48 10° WSW 17:33:17 61° W 17:33:17 61° W
Starlink AY 3.0 17:30:58 10° WSW 17:33:27 60° W 17:33:27 60° W
Starlink AW 3.0 17:31:08 10° WSW 17:33:38 61° W 17:33:38 61° W
Starlink BJ 3.1 17:31:18 10° WSW 17:33:46 60° W 17:33:46 60° W
Nadezhda 3 Rocket 4.3 17:27:55 10° NNW 17:34:07 70° W 17:40:24 10° S
Starlink AV 3.1 17:31:29 10° WSW 17:33:56 59° W 17:33:56 59° W
Starlink BD 3.1 17:31:40 10° WSW 17:34:07 59° W 17:34:07 59° W
Starlink BE 3.1 17:31:49 10° WSW 17:34:19 59° W 17:34:19 59° W
Starlink BM 3.1 17:32:02 10° WSW 17:34:28 58° W 17:34:28 58° W
Starlink AX 3.1 17:32:11 10° WSW 17:34:39 58° W 17:34:39 58° W
Starlink BH 3.2 17:32:23 10° WSW 17:34:49 57° W 17:34:49 57° W
Starlink AZ 3.2 17:32:35 10° WSW 17:35:00 56° W 17:35:00 56° W
Starlink BG 3.2 17:32:46 10° WSW 17:35:11 56° W 17:35:11 56° W
Starlink BF 3.2 17:32:57 10° WSW 17:35:21 56° W 17:35:21 56° W
Starlink BL 3.2 17:33:05 10° WSW 17:35:30 56° W 17:35:30 56° W
Starlink AH 3.2 17:33:17 10° WSW 17:35:40 55° W 17:35:40 55° W
Timation 2 Rocket 4.1 17:30:04 10° SSW 17:36:07 74° WNW 17:41:25 15° NNE
Starlink AC 3.2 17:33:27 10° WSW 17:35:51 55° W 17:35:51 55° W
Starlink X 3.3 17:33:38 10° WSW 17:36:01 54° W 17:36:01 54° W
Starlink AE 3.3 17:33:48 10° WSW 17:36:12 55° W 17:36:12 55° W
Starlink Z 3.3 17:34:00 10° WSW 17:36:22 53° W 17:36:22 53° W
Starlink AK 3.3 17:34:12 10° WSW 17:36:34 53° W 17:36:34 53° W
Starlink AL 3.3 17:34:23 10° WSW 17:36:44 53° W 17:36:44 53° W
Starlink AD 3.3 17:34:32 10° WSW 17:36:53 52° W 17:36:53 52° W
Starlink Y 3.4 17:34:55 10° WSW 17:37:15 52° W 17:37:15 52° W
Starlink AG 3.4 17:35:06 10° WSW 17:37:25 51° W 17:37:25 51° W
Starlink W 3.4 17:35:14 10° WSW 17:37:35 51° W 17:37:35 51° W
Starlink AJ 3.4 17:35:26 10° WSW 17:37:45 51° W 17:37:45 51° W
Starlink AM 3.4 17:35:47 10° WSW 17:38:05 50° W 17:38:05 50° W
Starlink AP 3.5 17:35:58 10° WSW 17:38:16 50° W 17:38:16 50° W
Starlink AA 3.5 17:36:01 10° WSW 17:38:18 49° W 17:38:18 49° W
Cosmos 1602 Rocket 4.2 17:34:31 10° SSW 17:38:52 56° WNW 17:43:11 10° N
Starlink AF 3.5 17:36:20 10° WSW 17:38:39 49° W 17:38:39 49° W
Starlink AB 3.5 17:36:25 10° WSW 17:38:40 48° W 17:38:40 48° W
Starlink AN 3.5 17:36:42 10° WSW 17:38:58 48° W 17:38:58 48° W
ATLAS 5 CENTAUR R/B 3.4 17:37:51 10° W 17:41:31 25° NW 17:44:11 16° N
Cosmos-2242 3.6 17:37:29 10° N 17:40:35 40° NNE 17:40:35 40° NNE
BREEZE-M DEB (TANK) 3.7 17:40:36 10° SW 17:41:53 29° SW 17:41:53 29° SW
COSMO-SKYMED 1 3.7 17:40:03 10° N 17:44:10 42° WNW 17:48:15 10° SW
Cosmos 1727 Rocket 4.5 17:38:32 10° N 17:43:27 36° NE 17:43:27 36° NE
Cosmos 1980 3.6 17:41:57 10° NNW 17:47:41 75° ENE 17:51:18 23° SE
Cosmos 2341 Rocket 3.9 17:41:18 10° S 17:47:41 86° E 17:54:05 10° N
Cosmos 2297 Rocket 2.4 17:42:33 10° S 17:47:53 45° ESE 17:47:59 45° ESE
Starlink T 4.3 17:45:57 10° WSW 17:47:49 34° W 17:47:49 34° W
Starlink N 4.4 17:46:51 10° WSW 17:48:40 33° W 17:48:40 33° W
Starlink Q 4.5 17:48:07 10° WSW 17:49:54 31° W 17:49:54 31° W
Cosmos 1626 4.1 17:50:33 10° SW 17:53:47 28° WNW 17:57:02 10° NNW
Cosmos 724 4.3 17:48:02 10° SSW 17:53:53 60° ESE 17:54:54 52° ENE
COSMOS 2428 3.9 17:48:46 10° NW 17:54:11 44° WSW 17:59:34 10° S
Cosmos 1758 Rocket 3.4 17:50:53 10° S 17:55:11 85° W 17:56:04 56° N
Cosmos 2227 Rocket 2.4 17:54:00 10° S 17:58:54 49° SE 17:58:54 49° SE
SL-8 Rocket 3.9 17:54:37 10° S 18:00:56 80° E 18:07:15 10° N
Cosmos 2219 Rocket 3.8 17:59:07 10° NW 18:04:13 35° WSW 18:09:18 10° S
IRS-1A Rocket 4.2 17:58:52 10° SSE 18:04:41 76° ENE 18:10:25 10° NNW
H-2A R/B 4.0 18:09:02 16° N 18:09:02 16° N 18:10:04 10° N
Ariane Rocket 2.9 18:13:03 45° S 18:14:40 83° WSW 18:19:47 10° NNW
ADEOS Rocket 3.1 18:14:03 20° NNE 18:18:44 89° ESE 18:25:48 10° SSW
USA 267 4.2 18:20:30 31° NNE 18:21:31 32° N 18:27:10 10° WNW
DELTA 2 R/B (1) 4.5 18:17:05 10° SW 18:21:36 37° S 18:21:36 37° S
Cosmos 1825 Rocket 4.3 18:18:17 10° SSW 18:22:32 49° WNW 18:22:34 49° WNW
MOS 1 4.3 18:25:46 74° N 18:25:46 74° N 18:30:58 10° NNW
Cosmos 2218 Rocket 4.0 18:19:22 10° S 18:25:41 81° W 18:32:06 10° N
Cosmos 2237 Rocket 3.4 18:45:06 10° NW 18:50:17 39° WSW 18:52:01 31° SW
CZ-4C R/B 4.1 18:44:12 10° NW 18:51:01 40° WSW 18:58:33 10° S
SL-16 R/B 3.9 19:03:22 10° NNW 19:05:46 26° NNW 19:05:46 26° NNW
Cosmos 2297 Rocket 4.2 19:27:04 10° WSW 19:29:51 24° W 19:29:51 24° W
Cosmos 2227 Rocket 4.5 19:38:52 10° WSW 19:40:47 19° W 19:40:47 19° W
